CALSPHERE 1 1 00900U 64063C 26070.97950905 .00000709 00000+0 71399-3 0 9994 2 00900 90.2161 69.5022 0023870 223.3653 190.0376 13.76500967 58056 CALSPHERE 2 1 00902U 64063E 26070.99577627 .00000053 00000+0 66918-4 0 9998 2 00902 90.2283 73.4878 0019675 144.5984 274.6670 13.52891852843121 LCS 1 1 01361U 65034C 26071.23306417 .00000001 00000+0 -91238-3 0 9998 2 01361 32.1441 47.2208 0013206 139.0934 221.0556 9.89309901200283 TEMPSAT 1 1 01512U 65065E 26071.14937284 .00000063 00000+0 10824-3 0 9991 2 01512 89.9943 212.5852 0070435 159.8437 22.4468 13.33589477947112 CALSPHERE 4A 1 01520U 65065H 26071.18185401 .00000098 00000+0 16947-3 0 9990 2 01520 89.9027 123.4478 0070014 19.2292 45.3370 13.36259617949750 OPS 5712 (P/L 160) 1 02826U 67053A 26071.13760076 .00008641 00000+0 12558-2 0 9996 2 02826 69.9166 275.9046 0004056 221.6911 138.3927 14.76230819 51906 OPS 5712 (P/L 153) 1 02874U 67053H 26071.09228648 .00000029 00000+0 59356-4 0 9999 2 02874 69.9759 323.4219 0009291 307.7715 52.2549 13.96812336993227 RIGIDSPHERE 2 (LCS 4) 1 05398U 71067E 26071.17677171 .00000899 00000+0 28694-3 0 9996 2 05398 87.6275 5.7213 0059141 192.6327 167.3394 14.37747188859948 COSMOS 2493 (SKRL-756 1) 1 39490U 13078A 26071.21341078 .00004098 00000+0 31366-3 0 9998 2 39490 82.4165 356.0244 0012185 206.0104 154.0510 15.01606403663408 COSMOS 2494 (SKRL-756 2) 1 39491U 13078B 26071.18369303 .00004471 00000+0 31881-3 0 9993 2 39491 82.4162 345.8465 0016417 169.0453 191.1134 15.04238805664229